Time,TemperatureF,DewpointF,PressureIn,WindDirection,WindDirectionDegrees,WindSpeedMPH,WindSpeedGustMPH,Humidity,HourlyPrecipIn,Conditions,Clouds,dailyrainin,SoftwareType,DateUTC
2013-05-05 12:18:00,54.1,52.4,29.89,East,92,6.0,7.0,94,0.00,,,0.49,Wunderground v.1.15,2013-05-05 16:18:00,
2013-05-05 12:19:00,54.1,52.4,29.89,East,92,5.0,7.0,94,0.00,,,0.49,Wunderground v.1.15,2013-05-05 16:19:00,
2013-05-05 12:24:00,54.2,52.5,29.89,East,101,2.0,15.0,94,0.00,,,0.49,Wunderground v.1.15,2013-05-05 16:24:00,
2013-05-05 12:29:00,54.1,52.4,29.90,East,92,2.0,15.0,94,0.00,,,0.49,Wunderground v.1.15,2013-05-05 16:29:00,
2013-05-05 12:34:00,54.1,52.1,29.89,East,97,5.0,15.0,93,0.00,,,0.49,Wunderground v.1.15,2013-05-05 16:34:00,
2013-05-05 12:39:00,54.2,52.2,29.89,East,94,9.0,9.0,93,0.00,,,0.49,Wunderground v.1.15,2013-05-05 16:39:00,
2013-05-05 12:40:00,54.3,52.3,29.89,ESE,113,11.0,11.0,93,0.00,,,0.49,Wunderground v.1.15,2013-05-05 16:40:00,
2013-05-05 12:44:00,54.2,51.9,29.90,ESE,107,4.0,11.0,92,0.00,,,0.49,Wunderground v.1.15,2013-05-05 16:44:00,
2013-05-05 12:45:00,54.2,52.2,29.90,ESE,112,3.0,11.0,93,0.00,,,0.49,Wunderground v.1.15,2013-05-05 16:45:00,
2013-05-05 12:49:00,54.1,51.8,29.90,East,82,3.0,15.0,92,0.00,,,0.49,Wunderground v.1.15,2013-05-05 16:49:00,
2013-05-05 12:50:00,54.1,51.8,29.90,East,90,8.0,15.0,92,0.00,,,0.49,Wunderground v.1.15,2013-05-05 16:50:00,
2013-05-05 12:54:00,54.0,51.7,29.89,East,101,4.0,15.0,92,0.00,,,0.49,Wunderground v.1.15,2013-05-05 16:54:00,
2013-05-05 12:55:00,54.0,51.7,29.89,ESE,106,9.0,15.0,92,0.00,,,0.49,Wunderground v.1.15,2013-05-05 16:55:00,
2013-05-05 12:59:00,54.1,51.8,29.89,ESE,103,5.0,13.0,92,0.00,,,0.49,Wunderground v.1.15,2013-05-05 16:59:00,
2013-05-05 13:00:00,54.0,51.7,29.89,East,95,6.0,9.0,92,0.00,,,0.49,Wunderground v.1.15,2013-05-05 17:00:00,
2013-05-05 13:01:00,54.1,51.8,29.89,ENE,78,9.0,11.0,92,0.00,,,0.49,Wunderground v.1.15,2013-05-05 17:01:00,
2013-05-05 13:04:00,54.1,51.8,29.89,ESE,104,11.0,13.0,92,0.00,,,0.49,Wunderground v.1.15,2013-05-05 17:04:00,
2013-05-05 13:05:00,54.1,51.8,29.89,ESE,112,6.0,13.0,92,0.00,,,0.49,Wunderground v.1.15,2013-05-05 17:05:00,
2013-05-05 13:06:00,54.1,51.8,29.89,East,93,12.0,13.0,92,0.00,,,0.49,Wunderground v.1.15,2013-05-05 17:06:00,
2013-05-05 13:10:00,54.1,51.5,29.89,East,97,12.0,12.0,91,0.00,,,0.49,Wunderground v.1.15,2013-05-05 17:10:00,
2013-05-05 13:11:00,54.0,51.4,29.89,East,80,8.0,16.0,91,0.00,,,0.49,Wunderground v.1.15,2013-05-05 17:11:00,
2013-05-05 13:15:00,54.1,51.8,29.88,East,80,4.0,16.0,92,0.00,,,0.49,Wunderground v.1.15,2013-05-05 17:15:00,
2013-05-05 13:16:00,54.2,51.6,29.88,East,93,3.0,16.0,91,0.00,,,0.49,Wunderground v.1.15,2013-05-05 17:16:00,
2013-05-05 13:20:00,54.3,52.0,29.88,ESE,109,3.0,6.0,92,0.00,,,0.49,Wunderground v.1.15,2013-05-05 17:20:00,
2013-05-05 13:21:00,54.4,52.1,29.88,ESE,109,2.0,6.0,92,0.00,,,0.49,Wunderground v.1.15,2013-05-05 17:21:00,
2013-05-05 13:26:00,54.5,52.2,29.88,East,94,4.0,13.0,92,0.00,,,0.49,Wunderground v.1.15,2013-05-05 17:26:00,
2013-05-05 13:27:00,54.5,51.9,29.88,East,93,1.0,13.0,91,0.00,,,0.49,Wunderground v.1.15,2013-05-05 17:27:00,
2013-05-05 13:31:00,54.6,52.0,29.89,East,92,7.0,7.0,91,0.00,,,0.49,Wunderground v.1.15,2013-05-05 17:31:00,
2013-05-05 13:32:00,54.5,51.9,29.89,ESE,109,6.0,10.0,91,0.00,,,0.49,Wunderground v.1.15,2013-05-05 17:32:00,
2013-05-05 13:36:00,54.5,51.9,29.88,ESE,105,8.0,17.0,91,0.00,,,0.49,Wunderground v.1.15,2013-05-05 17:36:00,
2013-05-05 13:37:00,54.4,51.5,29.88,East,100,6.0,17.0,90,0.00,,,0.49,Wunderground v.1.15,2013-05-05 17:37:00,
2013-05-05 13:41:00,54.5,51.9,29.89,ESE,115,10.0,12.0,91,0.00,,,0.49,Wunderground v.1.15,2013-05-05 17:41:00,
2013-05-05 13:42:00,54.5,51.9,29.89,ESE,102,6.0,12.0,91,0.00,,,0.49,Wunderground v.1.15,2013-05-05 17:42:00,
2013-05-05 13:46:00,54.5,51.9,29.89,East,95,11.0,16.0,91,0.00,,,0.49,Wunderground v.1.15,2013-05-05 17:46:00,
2013-05-05 13:47:00,54.5,51.6,29.89,East,93,6.0,16.0,90,0.00,,,0.49,Wunderground v.1.15,2013-05-05 17:47:00,
2013-05-05 13:48:00,54.4,51.5,29.89,ESE,117,9.0,16.0,90,0.00,,,0.49,Wunderground v.1.15,2013-05-05 17:48:00,
2013-05-05 13:51:00,54.4,51.5,29.89,ENE,77,8.0,12.0,90,0.00,,,0.49,Wunderground v.1.15,2013-05-05 17:51:00,
2013-05-05 13:52:00,54.4,51.5,29.89,NE,49,7.0,12.0,90,0.00,,,0.49,Wunderground v.1.15,2013-05-05 17:52:00,
2013-05-05 13:53:00,54.3,51.4,29.89,ESE,107,3.0,12.0,90,0.00,,,0.49,Wunderground v.1.15,2013-05-05 17:53:00,
2013-05-05 13:56:00,54.2,51.3,29.90,ENE,61,8.0,15.0,90,0.00,,,0.49,Wunderground v.1.15,2013-05-05 17:56:00,
2013-05-05 13:57:00,54.2,51.3,29.90,East,88,4.0,15.0,90,0.00,,,0.49,Wunderground v.1.15,2013-05-05 17:57:00,
2013-05-05 13:58:00,54.2,51.3,29.90,East,98,3.0,15.0,90,0.00,,,0.49,Wunderground v.1.15,2013-05-05 17:58:00,
2013-05-05 14:01:00,54.1,51.2,29.90,East,88,6.0,9.0,90,0.00,,,0.49,Wunderground v.1.15,2013-05-05 18:01:00,
2013-05-05 14:02:00,54.1,51.2,29.90,East,93,7.0,9.0,90,0.00,,,0.49,Wunderground v.1.15,2013-05-05 18:02:00,
2013-05-05 14:03:00,54.0,51.1,29.90,ESE,103,6.0,13.0,90,0.00,,,0.49,Wunderground v.1.15,2013-05-05 18:03:00,
2013-05-05 14:06:00,54.0,51.1,29.90,ENE,62,5.0,13.0,90,0.00,,,0.49,Wunderground v.1.15,2013-05-05 18:06:00,
2013-05-05 14:07:00,54.0,51.1,29.90,ENE,67,6.0,13.0,90,0.00,,,0.49,Wunderground v.1.15,2013-05-05 18:07:00,
2013-05-05 14:08:00,54.0,51.1,29.90,East,80,8.0,13.0,90,0.00,,,0.49,Wunderground v.1.15,2013-05-05 18:08:00,
2013-05-05 14:11:00,53.9,51.0,29.90,ESE,121,2.0,7.0,90,0.00,,,0.49,Wunderground v.1.15,2013-05-05 18:11:00,
2013-05-05 14:12:00,53.9,51.0,29.89,ENE,69,5.0,12.0,90,0.00,,,0.49,Wunderground v.1.15,2013-05-05 18:12:00,
2013-05-05 14:13:00,53.9,51.0,29.90,SE,134,16.0,18.0,90,0.00,,,0.49,Wunderground v.1.15,2013-05-05 18:13:00,
2013-05-05 14:14:00,53.9,51.0,29.90,East,82,11.0,18.0,90,0.00,,,0.49,Wunderground v.1.15,2013-05-05 18:14:00,
2013-05-05 14:16:00,53.8,50.9,29.90,East,88,6.0,18.0,90,0.00,,,0.49,Wunderground v.1.15,2013-05-05 18:16:00,
2013-05-05 14:17:00,53.8,50.6,29.90,East,101,5.0,18.0,89,0.00,,,0.49,Wunderground v.1.15,2013-05-05 18:17:00,
2013-05-05 14:18:00,53.8,50.9,29.90,East,99,12.0,18.0,90,0.00,,,0.49,Wunderground v.1.15,2013-05-05 18:18:00,
2013-05-05 14:19:00,53.8,50.9,29.90,East,98,14.0,18.0,90,0.00,,,0.49,Wunderground v.1.15,2013-05-05 18:19:00,
2013-05-05 14:21:00,53.8,50.9,29.89,ESE,119,7.0,10.0,90,0.00,,,0.49,Wunderground v.1.15,2013-05-05 18:21:00,
2013-05-05 14:23:00,53.8,50.9,29.89,East,94,8.0,13.0,90,0.00,,,0.49,Wunderground v.1.15,2013-05-05 18:23:00,
2013-05-05 14:24:00,53.8,50.9,29.89,East,95,5.0,13.0,90,0.00,,,0.49,Wunderground v.1.15,2013-05-05 18:24:00,
2013-05-05 14:27:00,53.8,50.9,29.89,East,81,3.0,13.0,90,0.00,,,0.49,Wunderground v.1.15,2013-05-05 18:27:00,
2013-05-05 14:28:00,53.8,50.9,29.89,East,79,11.0,13.0,90,0.00,,,0.49,Wunderground v.1.15,2013-05-05 18:28:00,
2013-05-05 14:29:00,53.8,50.9,29.89,East,84,4.0,13.0,90,0.00,,,0.49,Wunderground v.1.15,2013-05-05 18:29:00,
2013-05-05 14:32:00,53.9,51.0,29.89,East,92,15.0,15.0,90,0.00,,,0.49,Wunderground v.1.15,2013-05-05 18:32:00,
2013-05-05 14:33:00,53.9,51.0,29.89,East,86,9.0,16.0,90,0.00,,,0.49,Wunderground v.1.15,2013-05-05 18:33:00,
2013-05-05 14:34:00,53.9,51.0,29.89,East,93,9.0,16.0,90,0.00,,,0.49,Wunderground v.1.15,2013-05-05 18:34:00,
2013-05-05 14:37:00,53.8,50.9,29.89,East,93,0.0,16.0,90,0.00,,,0.49,Wunderground v.1.15,2013-05-05 18:37:00,
2013-05-05 14:38:00,53.9,51.0,29.89,East,92,3.0,16.0,90,0.00,,,0.49,Wunderground v.1.15,2013-05-05 18:38:00,
2013-05-05 14:39:00,53.9,51.0,29.89,East,88,6.0,16.0,90,0.00,,,0.49,Wunderground v.1.15,2013-05-05 18:39:00,
2013-05-05 14:42:00,53.9,51.0,29.89,East,92,10.0,13.0,90,0.00,,,0.49,Wunderground v.1.15,2013-05-05 18:42:00,
2013-05-05 14:43:00,53.9,51.0,29.89,ESE,104,10.0,13.0,90,0.00,,,0.49,Wunderground v.1.15,2013-05-05 18:43:00,
2013-05-05 14:44:00,53.9,51.0,29.89,ESE,109,5.0,13.0,90,0.00,,,0.49,Wunderground v.1.15,2013-05-05 18:44:00,
2013-05-05 14:45:00,53.9,51.0,29.89,ESE,104,9.0,13.0,90,0.00,,,0.49,Wunderground v.1.15,2013-05-05 18:45:00,
2013-05-05 14:47:00,53.9,51.0,29.89,ESE,113,6.0,13.0,90,0.00,,,0.49,Wunderground v.1.15,2013-05-05 18:47:00,
2013-05-05 14:48:00,54.0,51.1,29.89,East,93,6.0,13.0,90,0.00,,,0.49,Wunderground v.1.15,2013-05-05 18:48:00,
2013-05-05 14:50:00,54.0,51.1,29.89,East,84,7.0,9.0,90,0.00,,,0.49,Wunderground v.1.15,2013-05-05 18:50:00,
2013-05-05 14:51:00,54.1,51.2,29.89,East,79,6.0,9.0,90,0.00,,,0.49,Wunderground v.1.15,2013-05-05 18:51:00,
2013-05-05 14:52:00,54.1,51.2,29.89,East,90,6.0,11.0,90,0.00,,,0.49,Wunderground v.1.15,2013-05-05 18:52:00,
2013-05-05 14:53:00,54.1,51.2,29.89,East,96,4.0,15.0,90,0.00,,,0.49,Wunderground v.1.15,2013-05-05 18:53:00,
2013-05-05 14:55:00,54.2,51.3,29.89,East,90,5.0,15.0,90,0.00,,,0.49,Wunderground v.1.15,2013-05-05 18:55:00,
2013-05-05 14:56:00,54.2,51.3,29.89,East,94,4.0,15.0,90,0.00,,,0.49,Wunderground v.1.15,2013-05-05 18:56:00,
2013-05-05 14:57:00,54.2,51.3,29.89,East,87,9.0,15.0,90,0.00,,,0.49,Wunderground v.1.15,2013-05-05 18:57:00,
2013-05-05 14:59:00,54.2,51.0,29.89,ESE,117,7.0,15.0,89,0.00,,,0.49,Wunderground v.1.15,2013-05-05 18:59:00,
2013-05-05 15:00:00,54.3,51.4,29.89,SE,125,0.0,5.0,90,0.00,,,0.49,Wunderground v.1.15,2013-05-05 19:00:00,
2013-05-05 15:01:00,54.3,51.4,29.89,ESE,121,4.0,5.0,90,0.00,,,0.49,Wunderground v.1.15,2013-05-05 19:01:00,
2013-05-05 15:02:00,54.3,51.1,29.89,ESE,107,4.0,13.0,89,0.00,,,0.49,Wunderground v.1.15,2013-05-05 19:02:00,
2013-05-05 15:05:00,54.3,51.1,29.89,NE,53,8.0,13.0,89,0.00,,,0.49,Wunderground v.1.15,2013-05-05 19:05:00,
2013-05-05 15:06:00,54.2,50.7,29.89,East,80,9.0,13.0,88,0.00,,,0.49,Wunderground v.1.15,2013-05-05 19:06:00,
2013-05-05 15:08:00,54.2,50.7,29.89,ESE,103,5.0,14.0,88,0.00,,,0.49,Wunderground v.1.15,2013-05-05 19:08:00,
2013-05-05 15:10:00,54.1,50.9,29.89,East,94,4.0,6.0,89,0.00,,,0.49,Wunderground v.1.15,2013-05-05 19:10:00,
2013-05-05 15:11:00,54.2,51.0,29.89,East,90,11.0,12.0,89,0.00,,,0.49,Wunderground v.1.15,2013-05-05 19:11:00,
2013-05-05 15:12:00,54.2,51.0,29.89,ENE,69,3.0,12.0,89,0.00,,,0.49,Wunderground v.1.15,2013-05-05 19:12:00,
2013-05-05 15:13:00,54.1,50.9,29.89,East,90,6.0,12.0,89,0.00,,,0.49,Wunderground v.1.15,2013-05-05 19:13:00,
2013-05-05 15:15:00,54.2,51.0,29.89,ESE,119,3.0,12.0,89,0.00,,,0.49,Wunderground v.1.15,2013-05-05 19:15:00,
2013-05-05 15:16:00,54.2,51.0,29.89,ESE,118,10.0,12.0,89,0.00,,,0.49,Wunderground v.1.15,2013-05-05 19:16:00,
2013-05-05 15:17:00,54.2,51.0,29.89,SE,124,11.0,14.0,89,0.00,,,0.49,Wunderground v.1.15,2013-05-05 19:17:00,
2013-05-05 15:19:00,54.2,50.7,29.89,East,92,2.0,14.0,88,0.00,,,0.49,Wunderground v.1.15,2013-05-05 19:19:00,
2013-05-05 15:20:00,54.3,50.8,29.89,ENE,67,3.0,5.0,88,0.00,,,0.49,Wunderground v.1.15,2013-05-05 19:20:00,
2013-05-05 15:21:00,54.2,50.7,29.89,East,90,7.0,7.0,88,0.00,,,0.49,Wunderground v.1.15,2013-05-05 19:21:00,
2013-05-05 15:22:00,54.2,51.0,29.89,East,90,9.0,10.0,89,0.00,,,0.49,Wunderground v.1.15,2013-05-05 19:22:00,
2013-05-05 15:24:00,54.2,50.7,29.89,ESE,106,16.0,18.0,88,0.00,,,0.49,Wunderground v.1.15,2013-05-05 19:24:00,
2013-05-05 15:25:00,54.2,50.7,29.89,ESE,123,4.0,18.0,88,0.00,,,0.49,Wunderground v.1.15,2013-05-05 19:25:00,
2013-05-05 15:26:00,54.2,50.7,29.89,ESE,109,5.0,18.0,88,0.00,,,0.49,Wunderground v.1.15,2013-05-05 19:26:00,
2013-05-05 15:27:00,54.2,50.7,29.89,ESE,116,6.0,18.0,88,0.00,,,0.49,Wunderground v.1.15,2013-05-05 19:27:00,
2013-05-05 15:29:00,54.2,50.7,29.89,North,359,1.0,18.0,88,0.00,,,0.49,Wunderground v.1.15,2013-05-05 19:29:00,
2013-05-05 15:31:00,54.2,51.0,29.89,East,85,3.0,6.0,89,0.00,,,0.49,Wunderground v.1.15,2013-05-05 19:31:00,
2013-05-05 15:32:00,54.2,51.0,29.89,East,96,0.0,6.0,89,0.00,,,0.49,Wunderground v.1.15,2013-05-05 19:32:00,
2013-05-05 15:34:00,54.3,51.1,29.89,SE,124,0.0,10.0,89,0.00,,,0.49,Wunderground v.1.15,2013-05-05 19:34:00,
2013-05-05 15:36:00,54.4,51.5,29.89,East,92,7.0,10.0,90,0.00,,,0.49,Wunderground v.1.15,2013-05-05 19:36:00,
2013-05-05 15:37:00,54.4,51.2,29.89,North,359,1.0,10.0,89,0.00,,,0.49,Wunderground v.1.15,2013-05-05 19:37:00,
2013-05-05 15:39:00,54.5,51.3,29.89,East,85,9.0,15.0,89,0.00,,,0.49,Wunderground v.1.15,2013-05-05 19:39:00,
2013-05-05 15:41:00,54.4,50.9,29.89,East,94,3.0,7.0,88,0.00,,,0.49,Wunderground v.1.15,2013-05-05 19:41:00,
2013-05-05 15:42:00,54.3,50.8,29.89,East,99,4.0,7.0,88,0.00,,,0.49,Wunderground v.1.15,2013-05-05 19:42:00,
2013-05-05 15:45:00,54.3,51.1,29.89,ESE,103,7.0,17.0,89,0.00,,,0.49,Wunderground v.1.15,2013-05-05 19:45:00,
2013-05-05 15:46:00,54.1,50.6,29.89,East,90,4.0,17.0,88,0.00,,,0.49,Wunderground v.1.15,2013-05-05 19:46:00,
2013-05-05 15:47:00,54.1,50.6,29.89,East,95,2.0,17.0,88,0.00,,,0.49,Wunderground v.1.15,2013-05-05 19:47:00,
2013-05-05 15:50:00,53.9,50.4,29.89,ESE,119,4.0,17.0,88,0.00,,,0.49,Wunderground v.1.15,2013-05-05 19:50:00,
2013-05-05 15:51:00,53.9,50.7,29.89,East,89,13.0,13.0,89,0.00,,,0.49,Wunderground v.1.15,2013-05-05 19:51:00,
2013-05-05 15:52:00,53.8,50.6,29.89,ENE,76,10.0,13.0,89,0.00,,,0.49,Wunderground v.1.15,2013-05-05 19:52:00,
2013-05-05 15:55:00,53.8,50.6,29.89,East,90,5.0,13.0,89,0.00,,,0.49,Wunderground v.1.15,2013-05-05 19:55:00,
2013-05-05 15:56:00,53.7,50.5,29.89,ESE,111,4.0,13.0,89,0.00,,,0.49,Wunderground v.1.15,2013-05-05 19:56:00,
2013-05-05 15:57:00,53.7,50.5,29.89,East,94,16.0,16.0,89,0.00,,,0.49,Wunderground v.1.15,2013-05-05 19:57:00,
2013-05-05 16:00:00,53.7,50.5,29.89,ESE,111,10.0,12.0,89,0.00,,,0.49,Wunderground v.1.15,2013-05-05 20:00:00,
2013-05-05 16:02:00,53.6,50.4,29.89,East,84,4.0,12.0,89,0.00,,,0.49,Wunderground v.1.15,2013-05-05 20:02:00,
2013-05-05 16:03:00,53.6,50.4,29.89,East,84,0.0,12.0,89,0.00,,,0.49,Wunderground v.1.15,2013-05-05 20:03:00,
2013-05-05 16:05:00,53.6,50.7,29.89,East,98,6.0,12.0,90,0.00,,,0.49,Wunderground v.1.15,2013-05-05 20:05:00,
2013-05-05 16:07:00,53.7,50.8,29.89,East,92,5.0,12.0,90,0.00,,,0.49,Wunderground v.1.15,2013-05-05 20:07:00,
2013-05-05 16:08:00,53.7,50.8,29.89,ESE,103,13.0,13.0,90,0.00,,,0.49,Wunderground v.1.15,2013-05-05 20:08:00,
2013-05-05 16:10:00,53.7,50.5,29.89,ESE,105,11.0,13.0,89,0.00,,,0.49,Wunderground v.1.15,2013-05-05 20:10:00,
2013-05-05 16:12:00,53.6,50.4,29.89,ESE,107,5.0,13.0,89,0.00,,,0.49,Wunderground v.1.15,2013-05-05 20:12:00,
2013-05-05 16:13:00,53.6,50.4,29.89,East,101,9.0,13.0,89,0.00,,,0.49,Wunderground v.1.15,2013-05-05 20:13:00,
2013-05-05 16:14:00,53.6,50.4,29.89,ENE,76,5.0,13.0,89,0.00,,,0.49,Wunderground v.1.15,2013-05-05 20:14:00,
2013-05-05 16:15:00,53.7,50.8,29.89,East,97,5.0,13.0,90,0.00,,,0.49,Wunderground v.1.15,2013-05-05 20:15:00,
2013-05-05 16:17:00,53.7,50.8,29.88,East,86,0.0,13.0,90,0.00,,,0.49,Wunderground v.1.15,2013-05-05 20:17:00,
2013-05-05 16:18:00,53.8,50.9,29.88,East,86,0.0,13.0,90,0.00,,,0.49,Wunderground v.1.15,2013-05-05 20:18:00,
2013-05-05 16:19:00,53.8,50.9,29.88,East,85,0.0,13.0,90,0.00,,,0.49,Wunderground v.1.15,2013-05-05 20:19:00,
2013-05-05 16:20:00,53.8,50.9,29.88,East,86,14.0,15.0,90,0.00,,,0.49,Wunderground v.1.15,2013-05-05 20:20:00,
2013-05-05 16:22:00,53.8,50.6,29.88,East,82,12.0,15.0,89,0.00,,,0.49,Wunderground v.1.15,2013-05-05 20:22:00,
2013-05-05 16:23:00,53.8,50.6,29.88,ESE,121,4.0,15.0,89,0.00,,,0.49,Wunderground v.1.15,2013-05-05 20:23:00,
2013-05-05 16:24:00,53.7,50.5,29.88,ESE,121,3.0,15.0,89,0.00,,,0.49,Wunderground v.1.15,2013-05-05 20:24:00,
2013-05-05 16:26:00,53.7,50.5,29.88,East,89,6.0,20.0,89,0.00,,,0.49,Wunderground v.1.15,2013-05-05 20:26:00,
2013-05-05 16:27:00,53.6,50.4,29.88,East,97,6.0,20.0,89,0.00,,,0.49,Wunderground v.1.15,2013-05-05 20:27:00,
2013-05-05 16:28:00,53.6,50.4,29.88,East,86,10.0,20.0,89,0.00,,,0.49,Wunderground v.1.15,2013-05-05 20:28:00,
2013-05-05 16:29:00,53.6,50.4,29.88,East,99,6.0,20.0,89,0.00,,,0.49,Wunderground v.1.15,2013-05-05 20:29:00,
2013-05-05 16:31:00,53.6,50.7,29.88,East,97,6.0,14.0,90,0.00,,,0.49,Wunderground v.1.15,2013-05-05 20:31:00,
2013-05-05 16:33:00,53.6,50.7,29.88,ESE,110,14.0,14.0,90,0.00,,,0.49,Wunderground v.1.15,2013-05-05 20:33:00,
2013-05-05 16:34:00,53.6,50.7,29.88,ESE,111,6.0,15.0,90,0.00,,,0.49,Wunderground v.1.15,2013-05-05 20:34:00,
2013-05-05 16:37:00,53.5,50.6,29.88,East,86,12.0,15.0,90,0.00,,,0.49,Wunderground v.1.15,2013-05-05 20:37:00,
2013-05-05 16:38:00,53.5,50.6,29.88,East,101,4.0,15.0,90,0.00,,,0.49,Wunderground v.1.15,2013-05-05 20:38:00,
2013-05-05 16:39:00,53.6,50.7,29.88,East,86,5.0,15.0,90,0.00,,,0.49,Wunderground v.1.15,2013-05-05 20:39:00,
2013-05-05 16:42:00,53.5,50.6,29.88,ESE,114,10.0,18.0,90,0.00,,,0.49,Wunderground v.1.15,2013-05-05 20:42:00,
2013-05-05 16:43:00,53.5,50.6,29.88,East,88,10.0,18.0,90,0.00,,,0.49,Wunderground v.1.15,2013-05-05 20:43:00,
2013-05-05 16:45:00,53.5,50.6,29.88,ENE,77,11.0,18.0,90,0.00,,,0.49,Wunderground v.1.15,2013-05-05 20:45:00,
2013-05-05 16:47:00,53.4,50.5,29.88,East,81,6.0,18.0,90,0.00,,,0.49,Wunderground v.1.15,2013-05-05 20:47:00,
2013-05-05 16:48:00,53.4,50.5,29.88,East,97,10.0,18.0,90,0.00,,,0.49,Wunderground v.1.15,2013-05-05 20:48:00,
2013-05-05 16:50:00,53.4,50.5,29.88,East,92,3.0,8.0,90,0.00,,,0.49,Wunderground v.1.15,2013-05-05 20:50:00,
2013-05-05 16:53:00,53.4,50.5,29.88,East,86,2.0,9.0,90,0.00,,,0.49,Wunderground v.1.15,2013-05-05 20:53:00,
2013-05-05 16:54:00,53.4,50.5,29.88,East,85,5.0,9.0,90,0.00,,,0.49,Wunderground v.1.15,2013-05-05 20:54:00,
2013-05-05 16:55:00,53.4,50.5,29.88,East,101,6.0,9.0,90,0.00,,,0.49,Wunderground v.1.15,2013-05-05 20:55:00,
2013-05-05 16:58:00,53.4,50.5,29.88,East,87,5.0,16.0,90,0.00,,,0.49,Wunderground v.1.15,2013-05-05 20:58:00,
2013-05-05 16:59:00,53.3,50.4,29.88,East,85,6.0,16.0,90,0.00,,,0.49,Wunderground v.1.15,2013-05-05 20:59:00,
2013-05-05 17:00:00,53.2,50.0,29.88,ENE,78,11.0,13.0,89,0.00,,,0.49,Wunderground v.1.15,2013-05-05 21:00:00,
2013-05-05 17:03:00,53.1,50.2,29.88,ESE,115,4.0,13.0,90,0.00,,,0.49,Wunderground v.1.15,2013-05-05 21:03:00,
2013-05-05 17:04:00,53.1,50.2,29.88,ESE,119,4.0,14.0,90,0.00,,,0.49,Wunderground v.1.15,2013-05-05 21:04:00,
2013-05-05 17:05:00,53.1,50.2,29.88,East,97,11.0,14.0,90,0.00,,,0.49,Wunderground v.1.15,2013-05-05 21:05:00,
2013-05-05 17:08:00,53.0,50.1,29.88,ENE,74,7.0,14.0,90,0.00,,,0.49,Wunderground v.1.15,2013-05-05 21:08:00,
2013-05-05 17:10:00,52.9,50.0,29.88,ESE,112,6.0,12.0,90,0.00,,,0.49,Wunderground v.1.15,2013-05-05 21:10:00,
2013-05-05 17:11:00,52.9,50.0,29.88,ESE,111,4.0,12.0,90,0.00,,,0.49,Wunderground v.1.15,2013-05-05 21:11:00,
2013-05-05 17:13:00,52.9,50.0,29.88,ESE,105,5.0,12.0,90,0.00,,,0.49,Wunderground v.1.15,2013-05-05 21:13:00,
2013-05-05 17:15:00,52.9,50.0,29.88,East,89,2.0,12.0,90,0.00,,,0.49,Wunderground v.1.15,2013-05-05 21:15:00,
2013-05-05 17:16:00,52.9,50.0,29.88,East,89,0.0,12.0,90,0.00,,,0.49,Wunderground v.1.15,2013-05-05 21:16:00,
2013-05-05 17:18:00,52.9,50.0,29.88,East,87,5.0,12.0,90,0.00,,,0.49,Wunderground v.1.15,2013-05-05 21:18:00,
2013-05-05 17:21:00,52.9,50.0,29.88,ENE,61,10.0,12.0,90,0.00,,,0.49,Wunderground v.1.15,2013-05-05 21:21:00,
2013-05-05 17:24:00,52.8,49.9,29.88,East,87,6.0,13.0,90,0.00,,,0.49,Wunderground v.1.15,2013-05-05 21:24:00,
2013-05-05 17:25:00,52.8,49.9,29.88,East,90,5.0,13.0,90,0.00,,,0.49,Wunderground v.1.15,2013-05-05 21:25:00,
2013-05-05 17:26:00,52.7,49.8,29.88,East,100,3.0,13.0,90,0.00,,,0.49,Wunderground v.1.15,2013-05-05 21:26:00,
2013-05-05 17:27:00,52.7,49.8,29.88,East,100,4.0,13.0,90,0.00,,,0.49,Wunderground v.1.15,2013-05-05 21:27:00,
2013-05-05 17:29:00,52.7,49.8,29.88,ESE,110,7.0,13.0,90,0.00,,,0.49,Wunderground v.1.15,2013-05-05 21:29:00,
2013-05-05 17:30:00,52.7,49.8,29.88,ESE,107,9.0,13.0,90,0.00,,,0.49,Wunderground v.1.15,2013-05-05 21:30:00,
2013-05-05 17:32:00,52.7,49.5,29.88,ESE,111,0.0,9.0,89,0.00,,,0.49,Wunderground v.1.15,2013-05-05 21:32:00,
2013-05-05 17:35:00,52.7,49.8,29.88,ESE,105,2.0,9.0,90,0.00,,,0.49,Wunderground v.1.15,2013-05-05 21:35:00,
2013-05-05 17:37:00,52.7,49.8,29.88,East,89,10.0,10.0,90,0.00,,,0.49,Wunderground v.1.15,2013-05-05 21:37:00,
2013-05-05 17:38:00,52.6,49.4,29.88,East,97,6.0,13.0,89,0.00,,,0.49,Wunderground v.1.15,2013-05-05 21:38:00,
2013-05-05 17:40:00,52.6,49.4,29.88,East,81,3.0,13.0,89,0.00,,,0.49,Wunderground v.1.15,2013-05-05 21:40:00,
2013-05-05 17:42:00,52.6,49.4,29.88,ESE,107,10.0,10.0,89,0.00,,,0.49,Wunderground v.1.15,2013-05-05 21:42:00,
2013-05-05 17:43:00,52.6,49.4,29.88,SE,129,5.0,14.0,89,0.00,,,0.49,Wunderground v.1.15,2013-05-05 21:43:00,
2013-05-05 17:45:00,52.6,49.4,29.88,SE,140,4.0,14.0,89,0.00,,,0.49,Wunderground v.1.15,2013-05-05 21:45:00,
2013-05-05 17:47:00,52.6,49.4,29.88,ESE,106,7.0,15.0,89,0.00,,,0.49,Wunderground v.1.15,2013-05-05 21:47:00,
2013-05-05 17:49:00,52.7,49.8,29.88,ESE,103,5.0,15.0,90,0.00,,,0.49,Wunderground v.1.15,2013-05-05 21:49:00,
2013-05-05 17:50:00,52.7,49.5,29.88,East,92,5.0,7.0,89,0.00,,,0.49,Wunderground v.1.15,2013-05-05 21:50:00,
2013-05-05 17:51:00,52.7,49.8,29.88,ESE,113,4.0,12.0,90,0.00,,,0.49,Wunderground v.1.15,2013-05-05 21:51:00,
2013-05-05 17:53:00,52.8,49.9,29.88,East,96,10.0,12.0,90,0.00,,,0.49,Wunderground v.1.15,2013-05-05 21:53:00,
2013-05-05 17:54:00,52.8,49.9,29.88,ESE,108,6.0,17.0,90,0.00,,,0.49,Wunderground v.1.15,2013-05-05 21:54:00,
2013-05-05 17:56:00,52.8,49.6,29.88,East,92,6.0,17.0,89,0.00,,,0.49,Wunderground v.1.15,2013-05-05 21:56:00,
2013-05-05 17:58:00,52.8,49.9,29.88,SE,135,10.0,17.0,90,0.00,,,0.49,Wunderground v.1.15,2013-05-05 21:58:00,
2013-05-05 17:59:00,52.8,49.9,29.88,ESE,115,4.0,17.0,90,0.00,,,0.49,Wunderground v.1.15,2013-05-05 21:59:00,
2013-05-05 18:01:00,52.7,49.8,29.88,East,97,9.0,13.0,90,0.00,,,0.49,Wunderground v.1.15,2013-05-05 22:01:00,
2013-05-05 18:02:00,52.7,49.8,29.88,East,97,6.0,13.0,90,0.00,,,0.49,Wunderground v.1.15,2013-05-05 22:02:00,
2013-05-05 18:03:00,52.7,49.8,29.88,ESE,112,6.0,13.0,90,0.00,,,0.49,Wunderground v.1.15,2013-05-05 22:03:00,
2013-05-05 18:05:00,52.7,49.8,29.88,ESE,115,5.0,13.0,90,0.00,,,0.49,Wunderground v.1.15,2013-05-05 22:05:00,
2013-05-05 18:07:00,52.8,50.2,29.88,ESE,120,3.0,13.0,91,0.00,,,0.49,Wunderground v.1.15,2013-05-05 22:07:00,
2013-05-05 18:08:00,52.8,50.2,29.88,ESE,117,5.0,13.0,91,0.00,,,0.49,Wunderground v.1.15,2013-05-05 22:08:00,
2013-05-05 18:11:00,52.9,50.3,29.88,East,86,6.0,11.0,91,0.00,,,0.49,Wunderground v.1.15,2013-05-05 22:11:00,
2013-05-05 18:12:00,52.9,50.3,29.88,ESE,116,2.0,11.0,91,0.00,,,0.49,Wunderground v.1.15,2013-05-05 22:12:00,
2013-05-05 18:13:00,52.9,50.3,29.88,SE,124,10.0,11.0,91,0.00,,,0.49,Wunderground v.1.15,2013-05-05 22:13:00,
2013-05-05 18:14:00,52.9,50.3,29.88,East,94,7.0,13.0,91,0.00,,,0.49,Wunderground v.1.15,2013-05-05 22:14:00,
2013-05-05 18:16:00,52.8,49.9,29.88,ESE,113,4.0,13.0,90,0.00,,,0.49,Wunderground v.1.15,2013-05-05 22:16:00,
2013-05-05 18:18:00,52.8,49.9,29.88,ENE,76,9.0,15.0,90,0.00,,,0.49,Wunderground v.1.15,2013-05-05 22:18:00,
2013-05-05 18:19:00,52.8,49.9,29.88,East,100,2.0,15.0,90,0.00,,,0.49,Wunderground v.1.15,2013-05-05 22:19:00,
2013-05-05 18:21:00,52.7,50.1,29.88,East,85,9.0,12.0,91,0.00,,,0.49,Wunderground v.1.15,2013-05-05 22:21:00,
2013-05-05 18:23:00,52.6,50.0,29.88,East,101,5.0,12.0,91,0.00,,,0.49,Wunderground v.1.15,2013-05-05 22:23:00,
2013-05-05 18:24:00,52.6,50.0,29.88,East,101,3.0,12.0,91,0.00,,,0.49,Wunderground v.1.15,2013-05-05 22:24:00,
2013-05-05 18:27:00,52.5,49.9,29.88,East,96,11.0,15.0,91,0.00,,,0.49,Wunderground v.1.15,2013-05-05 22:27:00,
2013-05-05 18:29:00,52.4,49.8,29.88,ESE,107,3.0,15.0,91,0.00,,,0.49,Wunderground v.1.15,2013-05-05 22:29:00,
2013-05-05 18:30:00,52.3,49.8,29.88,East,93,5.0,15.0,91,0.00,,,0.49,Wunderground v.1.15,2013-05-05 22:30:00,
2013-05-05 18:32:00,52.2,49.7,29.88,East,101,2.0,10.0,91,0.00,,,0.49,Wunderground v.1.15,2013-05-05 22:32:00,
2013-05-05 18:34:00,52.2,49.7,29.88,SE,126,4.0,10.0,91,0.00,,,0.49,Wunderground v.1.15,2013-05-05 22:34:00,
2013-05-05 18:35:00,52.2,49.7,29.88,SE,126,4.0,10.0,91,0.00,,,0.49,Wunderground v.1.15,2013-05-05 22:35:00,
2013-05-05 18:36:00,52.2,49.7,29.88,SE,126,2.0,10.0,91,0.00,,,0.49,Wunderground v.1.15,2013-05-05 22:36:00,
2013-05-05 18:37:00,52.1,49.8,29.88,SE,126,3.0,10.0,92,0.00,,,0.49,Wunderground v.1.15,2013-05-05 22:37:00,
2013-05-05 18:39:00,52.1,49.8,29.88,East,98,5.0,11.0,92,0.00,,,0.49,Wunderground v.1.15,2013-05-05 22:39:00,
2013-05-05 18:40:00,52.1,49.8,29.88,East,92,8.0,8.0,92,0.00,,,0.49,Wunderground v.1.15,2013-05-05 22:40:00,
2013-05-05 18:41:00,52.1,49.6,29.88,East,94,3.0,11.0,91,0.00,,,0.49,Wunderground v.1.15,2013-05-05 22:41:00,
2013-05-05 18:42:00,52.0,49.5,29.88,East,94,7.0,11.0,91,0.00,,,0.49,Wunderground v.1.15,2013-05-05 22:42:00,
2013-05-05 18:44:00,52.0,49.5,29.88,ENE,69,4.0,11.0,91,0.00,,,0.49,Wunderground v.1.15,2013-05-05 22:44:00,
2013-05-05 18:45:00,52.0,49.5,29.88,ENE,74,3.0,11.0,91,0.00,,,0.49,Wunderground v.1.15,2013-05-05 22:45:00,
2013-05-05 18:46:00,52.0,49.5,29.88,East,94,12.0,12.0,91,0.00,,,0.49,Wunderground v.1.15,2013-05-05 22:46:00,
2013-05-05 18:47:00,52.0,49.7,29.88,East,88,9.0,13.0,92,0.00,,,0.49,Wunderground v.1.15,2013-05-05 22:47:00,
2013-05-05 18:49:00,52.0,49.7,29.88,East,100,5.0,13.0,92,0.00,,,0.49,Wunderground v.1.15,2013-05-05 22:49:00,
2013-05-05 18:50:00,52.0,49.7,29.88,ESE,109,9.0,9.0,92,0.00,,,0.49,Wunderground v.1.15,2013-05-05 22:50:00,
2013-05-05 18:52:00,51.9,49.6,29.88,East,84,0.0,10.0,92,0.00,,,0.49,Wunderground v.1.15,2013-05-05 22:52:00,
2013-05-05 18:53:00,52.0,49.5,29.88,ESE,117,12.0,12.0,91,0.00,,,0.49,Wunderground v.1.15,2013-05-05 22:53:00,
2013-05-05 18:54:00,51.9,49.4,29.88,ESE,103,5.0,12.0,91,0.00,,,0.49,Wunderground v.1.15,2013-05-05 22:54:00,
2013-05-05 18:55:00,51.9,49.4,29.88,ESE,104,3.0,12.0,91,0.00,,,0.49,Wunderground v.1.15,2013-05-05 22:55:00,
2013-05-05 18:56:00,51.9,49.4,29.88,ESE,108,4.0,12.0,91,0.00,,,0.49,Wunderground v.1.15,2013-05-05 22:56:00,
2013-05-05 18:57:00,51.9,49.4,29.88,ESE,105,8.0,14.0,91,0.00,,,0.49,Wunderground v.1.15,2013-05-05 22:57:00,
2013-05-05 18:58:00,51.8,49.3,29.88,East,90,10.0,14.0,91,0.00,,,0.49,Wunderground v.1.15,2013-05-05 22:58:00,
2013-05-05 18:59:00,51.8,49.3,29.88,East,92,11.0,14.0,91,0.00,,,0.49,Wunderground v.1.15,2013-05-05 22:59:00,
2013-05-05 19:00:00,51.8,49.3,29.88,East,93,3.0,6.0,91,0.00,,,0.49,Wunderground v.1.15,2013-05-05 23:00:00,
2013-05-05 19:01:00,51.8,49.3,29.88,East,99,10.0,10.0,91,0.00,,,0.49,Wunderground v.1.15,2013-05-05 23:01:00,
2013-05-05 19:02:00,51.8,49.3,29.88,ESE,105,5.0,10.0,91,0.00,,,0.49,Wunderground v.1.15,2013-05-05 23:02:00,
2013-05-05 19:03:00,51.8,49.3,29.88,ESE,108,5.0,10.0,91,0.00,,,0.49,Wunderground v.1.15,2013-05-05 23:03:00,
2013-05-05 19:05:00,51.8,49.3,29.88,ESE,107,4.0,10.0,91,0.00,,,0.49,Wunderground v.1.15,2013-05-05 23:05:00,
2013-05-05 19:06:00,51.7,49.2,29.88,ESE,107,2.0,10.0,91,0.00,,,0.49,Wunderground v.1.15,2013-05-05 23:06:00,
2013-05-05 19:08:00,51.7,49.2,29.88,ESE,109,1.0,10.0,91,0.00,,,0.49,Wunderground v.1.15,2013-05-05 23:08:00,
2013-05-05 19:11:00,51.8,49.5,29.88,East,101,1.0,4.0,92,0.00,,,0.49,Wunderground v.1.15,2013-05-05 23:11:00,
2013-05-05 19:12:00,51.8,49.5,29.88,East,89,6.0,10.0,92,0.00,,,0.49,Wunderground v.1.15,2013-05-05 23:12:00,
2013-05-05 19:13:00,51.7,49.5,29.88,East,89,2.0,10.0,92,0.00,,,0.49,Wunderground v.1.15,2013-05-05 23:13:00,
2013-05-05 19:14:00,51.7,49.5,29.88,East,89,2.0,10.0,92,0.00,,,0.49,Wunderground v.1.15,2013-05-05 23:14:00,
2013-05-05 19:16:00,51.7,49.5,29.88,East,90,4.0,10.0,92,0.00,,,0.49,Wunderground v.1.15,2013-05-05 23:16:00,
2013-05-05 19:18:00,51.7,49.5,29.88,East,90,0.0,10.0,92,0.00,,,0.49,Wunderground v.1.15,2013-05-05 23:18:00,
2013-05-05 19:19:00,51.7,49.5,29.88,East,89,0.0,10.0,92,0.00,,,0.49,Wunderground v.1.15,2013-05-05 23:19:00,
2013-05-05 19:21:00,51.7,49.7,29.88,ESE,106,4.0,5.0,93,0.00,,,0.49,Wunderground v.1.15,2013-05-05 23:21:00,
2013-05-05 19:22:00,51.7,49.7,29.88,ESE,106,0.0,5.0,93,0.00,,,0.49,Wunderground v.1.15,2013-05-05 23:22:00,
2013-05-05 19:23:00,51.7,49.5,29.88,ESE,106,4.0,5.0,92,0.00,,,0.49,Wunderground v.1.15,2013-05-05 23:23:00,
2013-05-05 19:24:00,51.7,49.5,29.88,ESE,105,2.0,5.0,92,0.00,,,0.49,Wunderground v.1.15,2013-05-05 23:24:00,
2013-05-05 19:26:00,51.6,49.6,29.88,ESE,102,2.0,5.0,93,0.00,,,0.49,Wunderground v.1.15,2013-05-05 23:26:00,
2013-05-05 19:27:00,51.6,49.6,29.88,East,101,2.0,5.0,93,0.00,,,0.49,Wunderground v.1.15,2013-05-05 23:27:00,
2013-05-05 19:28:00,51.6,49.6,29.87,East,101,1.0,5.0,93,0.00,,,0.49,Wunderground v.1.15,2013-05-05 23:28:00,
2013-05-05 19:29:00,51.6,49.6,29.88,ESE,102,3.0,5.0,93,0.00,,,0.49,Wunderground v.1.15,2013-05-05 23:29:00,
2013-05-05 19:32:00,51.5,49.5,29.88,East,89,6.0,8.0,93,0.00,,,0.49,Wunderground v.1.15,2013-05-05 23:32:00,
2013-05-05 19:33:00,51.5,49.5,29.88,East,91,4.0,8.0,93,0.00,,,0.49,Wunderground v.1.15,2013-05-05 23:33:00,
2013-05-05 19:37:00,51.5,49.5,29.88,East,90,4.0,8.0,93,0.00,,,0.49,Wunderground v.1.15,2013-05-05 23:37:00,
2013-05-05 19:38:00,51.4,49.4,29.87,East,98,6.0,10.0,93,0.00,,,0.49,Wunderground v.1.15,2013-05-05 23:38:00,
2013-05-05 19:42:00,51.3,49.3,29.87,East,80,2.0,7.0,93,0.00,,,0.50,Wunderground v.1.15,2013-05-05 23:42:00,
2013-05-05 19:47:00,51.2,49.2,29.87,East,89,3.0,14.0,93,0.00,,,0.50,Wunderground v.1.15,2013-05-05 23:47:00,
2013-05-05 19:48:00,51.2,49.2,29.87,East,90,5.0,14.0,93,0.00,,,0.50,Wunderground v.1.15,2013-05-05 23:48:00,
2013-05-05 19:52:00,51.2,49.5,29.88,East,100,3.0,10.0,94,0.00,,,0.50,Wunderground v.1.15,2013-05-05 23:52:00,
2013-05-05 19:53:00,51.2,49.5,29.88,East,99,6.0,10.0,94,0.00,,,0.50,Wunderground v.1.15,2013-05-05 23:53:00,
2013-05-05 19:54:00,51.2,49.5,29.88,East,97,2.0,10.0,94,0.00,,,0.50,Wunderground v.1.15,2013-05-05 23:54:00,
2013-05-05 19:58:00,51.1,49.4,29.88,East,96,10.0,10.0,94,0.05,,,0.51,Wunderground v.1.15,2013-05-05 23:58:00,
2013-05-05 19:59:00,51.1,49.4,29.88,East,93,5.0,10.0,94,0.05,,,0.51,Wunderground v.1.15,2013-05-05 23:59:00,
2013-05-05 20:03:00,51.0,49.3,29.88,East,100,5.0,9.0,94,0.07,,,0.52,Wunderground v.1.15,2013-05-06 00:03:00,
2013-05-05 20:04:00,51.0,49.3,29.88,East,99,2.0,9.0,94,0.07,,,0.52,Wunderground v.1.15,2013-05-06 00:04:00,
2013-05-05 20:05:00,51.0,49.3,29.88,East,99,3.0,9.0,94,0.07,,,0.52,Wunderground v.1.15,2013-05-06 00:05:00,
2013-05-05 20:08:00,51.0,49.3,29.88,ESE,123,14.0,14.0,94,0.07,,,0.52,Wunderground v.1.15,2013-05-06 00:08:00,
2013-05-05 20:09:00,51.0,49.3,29.88,East,97,10.0,14.0,94,0.07,,,0.52,Wunderground v.1.15,2013-05-06 00:09:00,
2013-05-05 20:10:00,50.9,49.2,29.88,East,89,3.0,4.0,94,0.07,,,0.52,Wunderground v.1.15,2013-05-06 00:10:00,
2013-05-05 20:14:00,50.9,49.2,29.88,ESE,109,5.0,7.0,94,0.05,,,0.52,Wunderground v.1.15,2013-05-06 00:14:00,
2013-05-05 20:15:00,50.9,49.2,29.89,ESE,111,7.0,7.0,94,0.05,,,0.52,Wunderground v.1.15,2013-05-06 00:15:00,
2013-05-05 20:16:00,50.9,49.2,29.89,ESE,120,5.0,9.0,94,0.04,,,0.52,Wunderground v.1.15,2013-05-06 00:16:00,
2013-05-05 20:19:00,50.9,49.2,29.89,ESE,116,3.0,9.0,94,0.04,,,0.53,Wunderground v.1.15,2013-05-06 00:19:00,
2013-05-05 20:20:00,50.9,49.2,29.89,ESE,116,3.0,9.0,94,0.04,,,0.53,Wunderground v.1.15,2013-05-06 00:20:00,
2013-05-05 20:21:00,50.9,49.2,29.89,ESE,116,3.0,5.0,94,0.04,,,0.53,Wunderground v.1.15,2013-05-06 00:21:00,
2013-05-05 20:22:00,50.9,49.2,29.89,SE,135,5.0,6.0,94,0.04,,,0.53,Wunderground v.1.15,2013-05-06 00:22:00,